Wind_Speed
22 23 20 20 19 16 14 12 9 6 4 4 3 4 7 7 5 5 7 8 8 9 9 9 8 8 7 6 6 6 6 6 6 7 9 11 13 12 12 10 10 10 9
23 24 20 20 19 17 14 11 8 6 5 3 2 5 5 5 5 6 7 9 9 9 10 9 10 10 10 10 9 8 8 8 8 8 9 9 11 11 10 10 10 10 8
24 24 22 19 17 17 14 11 7 6 5 1 3 3 5 5 5 7 9 9 10 10 11 11 11 10 10 10 10 10 10 9 8 7 6 6 15 7 9 11 10 11 10
24 23 20 17 21 18 14 9 7 6 3 1 2 6 6 5 6 9 9 9 10 11 11 11 10 10 10 10 10 10 9 8 8 7 6 3 15 7 10 11 11 12 12
28 22 19 21 19 17 12 9 8 4 0 1 7 6 6 7 8 8 9 9 10 10 10 10 11 12 12 12 11 11 10 9 7 6 11 10 15 9 11 12 12 12 14
22 22 26 21 19 15 11 9 5 1 1 6 6 6 8 8 8 8 8 8 8 9 9 11 12 13 13 13 12 11 11 10 8 8 8 12 12 12 13 14 14 14 15
22 26 25 21 19 15 10 7 3 2 7 7 7 9 8 8 8 8 8 8 10 11 12 13 15 16 16 15 14 13 11 10 10 10 12 11 12 13 14 15 16 17 17
25 26 25 22 17 13 10 6 3 7 9 9 10 9 8 7 6 6 6 9 11 14 14 15 18 18 17 15 12 11 12 12 10 10 11 14 15 14 13 14 16 17 18
22 22 21 17 15 14 9 5 7 11 11 11 10 9 7 5 3 3 6 8 11 12 14 17 19 20 20 17 15 13 12 12 12 12 11 14 15 17 17 15 15 16 17
18 19 20 16 14 11 8 7 11 12 12 12 10 8 5 2 1 4 5 7 9 12 14 15 18 20 20 19 18 18 16 14 13 12 17 16 17 19 20 19 18 18 18
18 16 15 15 12 9 8 11 13 13 14 12 10 7 4 3 3 5 6 8 10 12 14 15 18 21 25 26 20 17 17 17 16 14 18 16 18 20 22 23 23 23 21
18 17 18 13 11 9 10 12 13 15 15 13 10 6 6 6 5 8 9 11 12 14 17 19 21 24 25 26 25 22 21 19 21 20 23 17 20 21 21 21 22 24 24
18 16 12 9 8 9 12 15 16 16 15 11 10 9 8 7 8 10 11 13 16 17 21 25 27 28 32 33 27 25 25 26 26 26 28 25 25 26 27 26 25 25 25
14 11 9 9 11 12 15 16 18 14 15 11 10 10 10 9 10 11 14 16 18 19 21 25 29 34 32 34 29 30 30 31 32 32 32 33 29 29 28 29 29 29 29
11 11 10 10 12 13 15 16 17 14 9 8 10 13 14 15 13 17 16 19 20 23 27 31 36 36 34 35 35 36 37 37 37 38 37 37 37 30 30 29 29 30 32
11 8 8 9 12 14 16 16 16 12 11 10 10 12 19 22 23 26 20 22 25 27 32 34 38 35 35 36 39 40 41 42 43 43 40 38 39 40 35 33 33 33 34
12 9 8 8 10 16 18 20 22 21 8 6 18 26 26 28 24 20 22 27 23 29 33 37 37 38 39 40 43 44 44 43 43 43 45 40 37 42 43 39 37 37 39
15 12 10 10 12 14 18 24 26 24 16 17 18 22 22 21 17 18 23 29 30 34 35 37 39 41 42 42 45 45 45 44 43 41 42 46 43 41 43 47 45 40 43
16 14 14 15 15 18 18 27 24 32 26 10 16 21 20 18 17 21 25 28 32 36 37 37 39 40 43 44 45 46 45 46 45 45 42 44 44 42 44 41 47 46 47
20 16 19 19 18 18 19 15 3 4 10 9 12 16 15 16 19 23 27 30 31 34 36 40 40 41 43 46 48 49 46 45 46 47 41 40 42 44 47 51 54 53 53
22 20 20 20 20 20 11 9 6 8 9 11 14 12 12 16 19 23 28 30 30 36 39 41 42 43 45 46 48 48 48 46 40 36 33 38 48 45 50 55 53 54 54
23 22 22 23 21 13 12 9 9 9 10 11 10 12 16 20 23 26 27 32 35 35 40 43 43 45 45 47 47 48 49 46 37 26 37 41 38 41 37 44 46 42 47
23 20 18 14 12 11 11 9 11 12 12 13 15 18 20 24 28 29 32 33 36 38 40 43 46 47 46 46 46 44 43 40 41 38 37 38 40 41 35 35 36 40 42
15 14 12 12 9 8 11 12 11 12 11 18 20 23 27 29 30 32 35 36 37 39 41 43 43 45 45 45 43 39 37 36 33 38 28 26 27 29 29 33 31 35 37
17 14 11 8 11 12 12 13 13 15 16 19 21 26 28 35 34 35 37 38 38 39 41 43 43 43 42 42 40 35 32 29 29 26 30 27 26 26 26 28 32 35 34
15 12 12 13 13 13 14 16 18 20 23 27 25 27 34 35 34 37 38 39 40 41 42 42 43 41 40 36 32 33 30 27 25 26 28 26 28 32 30 30 31 31 33
Wind_Direction
185 175 171 156 149 145 140 134 129 129 125 125 109 26 1 2 76 64 50 51 51 50 48 44 39 34 29 20 3 353 348 345 340 330 317 312 302 290 289 290 281 285 275
182 170 171 157 152 149 144 137 137 138 145 135 45 5 4 85 69 47 47 53 56 52 48 41 34 25 15 7 360 350 341 337 332 329 321 334 306 291 291 293 287 280 276
176 167 167 162 163 153 149 145 143 146 144 107 6 17 105 86 61 59 62 62 58 50 42 36 31 22 12 4 357 349 342 336 334 337 23 9 312 302 297 280 286 276 275
169 166 163 176 162 159 152 146 144 142 130 350 104 117 100 83 79 76 70 62 56 52 46 39 33 25 15 6 358 354 348 341 332 321 298 280 291 289 290 280 280 279 274
164 167 178 174 165 161 151 151 147 139 298 122 122 108 102 97 88 79 72 64 59 49 46 42 35 26 18 7 0 357 355 352 342 324 312 302 305 312 294 283 282 278 279
172 178 185 168 170 160 158 153 142 121 152 129 121 112 111 102 95 83 73 60 49 39 27 27 23 18 16 10 4 1 359 356 354 351 327 311 302 298 294 293 288 282 284
184 178 172 169 167 164 163 152 141 130 144 143 132 128 115 105 92 81 68 55 39 29 25 21 14 8 4 2 358 359 356 351 348 350 338 338 323 308 298 294 294 290 290
192 167 162 167 167 164 164 157 158 160 154 151 145 131 119 108 94 73 49 37 29 23 18 13 7 2 356 351 348 349 355 354 351 341 341 328 328 326 321 308 299 294 288
164 159 159 174 172 169 164 165 176 166 162 157 147 136 132 113 76 27 21 17 15 9 6 3 359 356 347 343 338 337 332 335 336 337 333 330 321 318 318 317 313 308 302
159 159 167 170 170 168 172 185 179 169 165 162 159 154 146 135 346 342 348 355 360 357 356 351 346 345 343 334 333 331 327 330 332 323 308 316 314 312 310 308 307 306 306
160 157 164 173 172 178 181 180 174 169 171 171 173 172 178 217 262 290 322 332 337 333 334 332 333 336 336 331 323 331 329 329 324 319 307 317 313 306 303 301 298 296 297
165 174 174 177 178 175 175 173 176 177 180 185 188 194 225 244 277 301 310 311 313 315 316 318 326 328 327 327 325 320 323 328 325 321 310 315 314 311 308 305 301 295 292
171 174 177 180 178 183 182 183 180 187 191 196 208 225 245 264 276 291 299 299 304 307 314 319 318 320 317 322 307 316 319 319 317 314 308 306 307 306 303 301 296 291 289
171 180 192 204 201 194 186 187 188 197 199 214 233 247 259 270 276 292 295 298 300 302 306 312 310 319 313 314 315 313 313 313 312 309 307 304 303 302 300 299 297 292 289
195 200 200 199 196 194 197 197 197 202 213 242 264 273 284 280 286 291 286 287 293 299 301 309 310 316 310 311 312 310 310 310 309 308 308 306 304 302 299 296 294 292 290
181 181 191 198 200 204 204 202 199 202 219 245 279 299 293 296 275 269 277 285 291 298 300 307 310 308 311 309 308 307 309 310 311 310 309 307 305 304 301 297 293 290 288
189 192 199 213 216 222 222 218 219 217 206 271 307 265 306 266 275 269 286 292 295 302 304 305 307 308 308 307 307 307 308 307 306 306 305 302 301 301 299 295 292 291 287
210 212 219 231 239 255 240 230 230 236 240 261 252 252 266 274 284 288 290 298 307 305 303 307 307 306 305 304 303 304 305 305 303 304 305 302 301 295 294 295 291 287 285
221 225 234 249 260 266 275 261 271 278 259 255 249 262 271 286 293 295 300 304 305 304 304 302 300 300 301 302 304 304 306 305 306 304 305 299 300 298 296 291 290 292 285
230 235 247 257 267 281 293 293 245 238 242 251 254 262 282 292 297 300 305 303 300 298 299 300 301 302 304 305 305 305 305 307 307 304 304 301 294 296 296 294 294 295 290
241 245 252 263 268 277 288 267 244 243 253 253 257 265 287 301 303 301 299 300 301 303 302 301 303 303 302 302 303 303 303 304 304 301 304 280 287 288 286 286 286 283 287
249 257 260 265 267 261 245 251 246 252 252 252 267 285 292 300 302 302 303 302 301 299 298 299 301 303 304 305 305 304 303 300 297 266 268 271 285 285 284 286 289 290 286
254 260 258 244 224 242 250 243 245 247 260 274 281 287 297 305 307 305 302 298 296 299 300 302 305 305 306 305 305 304 303 298 294 291 279 275 274 282 291 299 289 286 285
225 226 219 225 241 253 233 242 250 265 278 281 295 299 308 308 307 301 300 300 302 304 305 303 302 305 306 306 305 302 297 294 297 296 291 285 283 292 286 288 290 292 292
211 214 226 247 269 258 249 262 267 276 282 282 291 300 300 304 307 304 306 308 309 307 307 309 309 310 307 305 302 299 296 291 290 288 292 292 292 293 293 292 287 295 302
217 234 264 265 261 245 267 276 277 286 294 294 293 305 305 307 303 305 306 310 313 313 314 311 308 308 304 311 302 300 298 295 290 285 289 295 294 299 293 292 296 295 295
Height
3152 3155 3158 3158 3162 3165 3167 3169 3170 3172 3173 3174 3175 3175 3174 3173 3173 3172 3172 3171 3171 3170 3169 3169 3168 3167 3167 3166 3165 3164 3163 3162 3162 3160 3159 3158 3158 3157 3158 3157 3156 3156 3156
3151 3154 3158 3159 3162 3165 3167 3169 3170 3171 3173 3174 3175 3174 3173 3173 3173 3173 3173 3172 3171 3171 3170 3170 3169 3168 3168 3167 3166 3165 3163 3162 3162 3161 3160 3158 3157 3157 3156 3156 3156 3155 3154
3151 3154 3157 3160 3163 3165 3167 3168 3170 3171 3172 3174 3174 3173 3173 3173 3173 3173 3173 3173 3172 3171 3171 3171 3170 3169 3168 3167 3165 3165 3164 3163 3162 3162 3161 3159 3156 3156 3154 3154 3154 3154 3154
3151 3155 3156 3160 3162 3164 3166 3168 3169 3171 3172 3173 3172 3173 3173 3174 3174 3173 3173 3173 3173 3172 3172 3171 3170 3168 3167 3166 3166 3164 3162 3162 3161 3161 3160 3159 3152 3154 3153 3153 3153 3152 3152
3148 3151 3156 3160 3162 3164 3165 3166 3168 3170 3171 3172 3172 3173 3173 3174 3174 3174 3174 3174 3173 3173 3172 3170 3170 3169 3168 3168 3166 3164 3163 3162 3161 3159 3157 3155 3153 3154 3153 3152 3151 3151 3150
3148 3150 3156 3158 3162 3163 3165 3166 3168 3168 3171 3171 3172 3172 3173 3174 3174 3174 3174 3174 3173 3173 3173 3171 3170 3170 3167 3167 3166 3163 3163 3161 3159 3159 3156 3154 3153 3152 3151 3152 3152 3151 3150
3145 3148 3152 3157 3160 3162 3164 3165 3167 3168 3170 3171 3171 3173 3174 3174 3174 3175 3175 3174 3174 3173 3172 3171 3170 3170 3169 3166 3165 3163 3163 3161 3160 3158 3156 3154 3152 3151 3150 3150 3149 3149 3149
3145 3143 3150 3157 3161 3162 3164 3165 3166 3167 3169 3171 3171 3173 3174 3175 3175 3176 3176 3175 3173 3172 3171 3171 3169 3168 3168 3166 3165 3163 3161 3161 3160 3158 3156 3153 3151 3149 3148 3148 3147 3146 3146
3135 3144 3152 3159 3161 3162 3163 3164 3166 3168 3168 3170 3172 3173 3175 3176 3176 3176 3175 3174 3173 3172 3170 3170 3169 3167 3166 3165 3164 3161 3160 3160 3158 3157 3155 3152 3150 3148 3147 3146 3145 3145 3144
3146 3149 3154 3159 3161 3161 3162 3163 3166 3167 3169 3171 3172 3174 3175 3176 3176 3175 3175 3174 3173 3172 3169 3169 3168 3166 3165 3164 3163 3160 3159 3158 3157 3155 3151 3151 3149 3147 3145 3144 3143 3142 3141
3148 3147 3154 3158 3159 3160 3162 3164 3166 3168 3170 3170 3172 3173 3174 3175 3174 3173 3174 3173 3172 3172 3169 3168 3167 3165 3164 3161 3160 3159 3156 3155 3154 3152 3149 3148 3147 3145 3143 3141 3139 3138 3138
3151 3154 3156 3158 3159 3160 3162 3164 3166 3168 3169 3170 3171 3173 3173 3174 3174 3174 3173 3172 3171 3170 3169 3167 3165 3163 3162 3160 3158 3155 3154 3153 3151 3149 3145 3145 3142 3141 3138 3137 3135 3134 3133
3153 3155 3157 3159 3159 3160 3162 3164 3165 3167 3169 3171 3172 3172 3173 3174 3174 3172 3171 3171 3169 3168 3166 3164 3162 3160 3159 3156 3154 3152 3151 3149 3147 3145 3141 3140 3139 3136 3133 3131 3130 3129 3129
3154 3155 3156 3157 3158 3160 3162 3164 3165 3167 3168 3170 3171 3171 3173 3173 3172 3171 3170 3169 3167 3166 3164 3162 3159 3157 3155 3152 3150 3147 3145 3144 3141 3139 3136 3133 3132 3130 3127 3125 3123 3122 3122
3153 3154 3155 3157 3158 3160 3162 3163 3164 3167 3168 3170 3171 3172 3172 3172 3172 3169 3167 3166 3165 3163 3160 3158 3156 3152 3150 3147 3145 3142 3139 3137 3134 3132 3130 3126 3122 3123 3121 3119 3117 3116 3114
3154 3155 3156 3158 3159 3160 3161 3162 3163 3165 3165 3168 3169 3170 3170 3170 3167 3165 3164 3162 3161 3159 3156 3154 3152 3149 3145 3142 3139 3136 3133 3129 3126 3122 3120 3118 3115 3112 3113 3111 3110 3109 3106
3156 3157 3157 3159 3160 3159 3159 3161 3161 3161 3164 3166 3168 3165 3165 3163 3163 3160 3159 3158 3155 3155 3152 3149 3146 3142 3138 3136 3132 3128 3125 3122 3119 3116 3111 3110 3107 3102 3099 3100 3101 3100 3098
3156 3157 3158 3158 3159 3160 3160 3159 3160 3162 3164 3165 3161 3159 3159 3158 3158 3157 3155 3154 3151 3149 3147 3143 3139 3136 3132 3129 3125 3121 3118 3114 3111 3108 3103 3097 3097 3096 3090 3086 3086 3090 3086
3155 3156 3157 3158 3159 3159 3159 3156 3157 3157 3159 3156 3156 3157 3156 3155 3154 3153 3151 3149 3147 3144 3140 3137 3134 3130 3125 3121 3116 3113 3110 3105 3102 3098 3096 3089 3085 3081 3078 3078 3072 3073 3071
3154 3155 3155 3156 3156 3156 3156 3156 3150 3152 3155 3153 3153 3154 3152 3152 3150 3149 3146 3145 3143 3139 3135 3130 3127 3122 3117 3112 3107 3104 3101 3097 3092 3087 3085 3081 3075 3073 3068 3062 3060 3057 3055
3151 3153 3153 3152 3153 3153 3153 3152 3150 3151 3151 3151 3150 3150 3148 3147 3146 3145 3142 3139 3137 3132 3126 3122 3117 3114 3110 3105 3100 3095 3090 3088 3086 3081 3077 3072 3067 3065 3060 3054 3051 3047 3044
3149 3149 3150 3150 3150 3150 3149 3148 3149 3149 3149 3148 3146 3145 3145 3144 3142 3139 3137 3132 3128 3126 3120 3114 3111 3105 3101 3095 3090 3084 3077 3078 3077 3073 3066 3062 3058 3052 3049 3044 3040 3036 3032
3146 3146 3145 3145 3147 3147 3147 3147 3147 3147 3146 3144 3143 3142 3141 3138 3135 3132 3129 3126 3121 3116 3112 3106 3099 3094 3089 3085 3079 3076 3069 3065 3060 3059 3057 3053 3047 3043 3039 3036 3032 3027 3023
3141 3142 3143 3143 3143 3143 3143 3143 3144 3144 3142 3140 3138 3135 3131 3131 3127 3124 3119 3116 3112 3107 3102 3096 3092 3085 3080 3074 3069 3066 3062 3057 3051 3045 3045 3042 3038 3036 3033 3028 3024 3019 3015
3138 3139 3140 3140 3140 3140 3140 3140 3140 3139 3137 3135 3132 3129 3128 3122 3119 3116 3112 3107 3103 3098 3092 3087 3080 3075 3070 3065 3060 3055 3051 3047 3043 3040 3033 3032 3031 3028 3025 3020 3015 3011 3007
3135 3136 3136 3136 3135 3136 3136 3136 3135 3133 3131 3128 3126 3124 3120 3116 3112 3108 3103 3098 3093 3088 3082 3076 3071 3067 3060 3054 3049 3045 3041 3038 3035 3032 3027 3024 3021 3019 3016 3011 3007 3004 3000